Theta_e
316 317 318 319 321 324 326 327 329 331 332 332 332 331 331 330 328 317 309 317 319 333 334 316 316 315 316 311 313 309 298 296 300 302 303 307 306 307 306 305 307 307 311 314 319
316 317 316 317 318 321 323 325 325 327 330 332 332 331 330 329 317 311 321 335 339 339 315 310 310 314 306 307 308 303 297 300 303 299 303 306 306 305 304 304 302 310 317 319 320
315 316 316 316 317 317 321 323 323 324 326 331 332 331 329 326 310 309 341 341 341 335 316 313 312 310 304 304 304 303 298 304 306 303 303 305 303 305 302 300 304 307 315 318 316
316 315 316 315 316 315 317 321 322 322 324 326 332 331 328 317 298 314 340 342 339 321 316 313 310 302 301 300 304 300 304 305 307 305 303 301 304 301 302 303 304 306 317 317 316
314 315 315 316 316 316 315 317 320 320 321 323 327 330 319 308 306 318 332 333 335 321 311 310 306 303 299 301 302 300 302 305 305 304 303 304 300 299 300 304 304 309 315 316 317
314 314 314 315 316 316 316 315 319 319 318 320 323 327 314 302 316 318 318 316 327 320 311 311 308 306 301 302 299 302 303 303 302 302 303 301 300 300 301 304 303 303 308 312 314
313 313 313 313 314 314 315 314 316 316 317 318 322 324 313 309 317 316 316 313 316 323 311 313 313 304 302 298 302 301 296 297 298 300 300 301 296 297 301 303 301 300 300 301 307
311 312 312 312 313 314 314 314 314 314 315 317 321 322 309 321 321 318 319 313 314 317 317 316 314 306 303 301 299 294 293 289 296 298 299 299 290 298 300 298 299 299 297 298 301
310 311 311 311 311 312 313 313 314 314 314 316 314 316 307 323 315 317 316 310 312 314 314 318 311 303 302 295 291 291 286 289 292 298 297 295 291 298 298 298 297 296 296 297 298
309 309 310 310 310 311 312 313 312 312 311 313 316 310 311 308 313 317 315 313 307 310 308 307 301 296 296 291 285 288 288 289 289 295 296 293 292 295 298 297 296 296 296 296 297
309 308 309 310 309 310 308 302 297 301 307 303 307 307 309 314 317 309 312 308 308 303 297 300 293 291 295 297 296 294 291 290 293 297 294 292 292 295 298 297 296 296 295 297 298
308 308 308 309 309 309 305 297 298 301 291 298 300 305 313 314 305 305 310 302 300 295 299 294 292 297 299 299 297 295 292 289 293 296 294 293 292 297 298 298 299 299 297 297 298
306 306 307 308 309 304 301 300 305 304 293 295 300 303 308 311 305 301 305 302 297 294 297 294 296 300 298 297 295 295 292 290 291 294 293 291 290 294 298 298 301 303 300 299 300
307 306 306 307 300 300 295 306 306 305 287 290 295 301 309 309 304 310 307 303 297 293 297 296 299 298 297 295 296 291 296 296 295 290 285 290 282 290 295 297 298 299 298 300 299
306 306 305 306 298 296 300 304 306 299 273 291 297 311 308 302 303 303 310 303 296 295 296 294 296 295 294 295 297 293 298 297 295 288 285 287 284 287 295 294 297 297 296 297 299
306 305 305 300 299 300 302 303 301 281 273 290 300 300 300 302 302 305 304 305 303 297 299 297 300 299 297 299 299 299 296 294 291 287 282 286 286 285 291 295 295 296 296 297 297
305 305 302 301 293 302 302 296 280 274 287 288 293 299 298 297 298 300 300 296 292 288 290 295 296 298 300 295 297 297 291 283 281 280 281 289 288 288 292 295 296 296 297 298 297
305 305 301 299 300 301 297 285 273 279 281 289 290 296 294 298 298 298 298 294 296 294 289 288 286 295 297 295 292 293 291 285 279 280 283 289 283 288 296 298 297 298 298 297 297
304 296 294 297 300 299 290 277 275 280 285 287 290 289 291 297 297 295 296 293 295 296 290 288 288 296 297 298 298 291 288 294 287 285 281 284 286 293 293 295 294 296 297 297 296
293 292 292 298 300 295 285 280 280 286 286 287 281 289 288 293 294 294 294 297 295 298 298 292 287 295 295 298 296 295 295 287 285 278 277 282 283 287 291 293 293 294 295 297 297
293 288 293 302 297 288 279 279 284 288 287 286 285 284 285 286 293 293 294 296 299 297 299 296 292 291 294 291 292 290 290 289 289 285 280 277 283 292 295 294 293 294 295 297 297
291 281 295 299 286 285 280 284 289 286 288 286 287 285 283 285 285 291 293 295 301 300 293 298 294 288 290 293 298 297 292 292 286 282 285 282 283 293 292 293 295 294 296 297 298
287 286 294 294 277 280 284 283 286 286 286 286 285 288 288 285 285 287 292 300 301 299 295 297 293 287 288 291 292 291 294 293 290 287 283 283 284 295 293 293 295 294 295 297 298
288 280 284 287 287 284 282 282 282 287 285 287 286 287 287 285 287 287 290 298 302 301 303 301 295 290 285 288 292 287 291 293 291 286 286 286 288 291 291 293 294 295 295 296 299
288 282 284 275 280 285 284 282 280 281 287 287 285 285 284 282 283 285 291 290 298 302 301 299 290 293 294 293 293 292 291 292 290 291 287 290 290 294 294 293 294 295 295 295 297
285 284 287 285 284 282 281 280 281 282 284 283 283 285 285 281 283 282 287 286 290 297 298 299 291 293 291 294 293 290 292 292 292 292 291 291 289 295 297 294 294 295 296 295 296
289 292 288 282 279 275 277 280 282 284 286 286 285 283 283 286 290 290 293 292 292 288 292 295 293 291 286 292 293 288 290 291 292 294 293 289 294 295 295 295 295 295 296 296 297
Wind_Speed
20 20 19 17 21 22 20 19 17 17 13 11 10 10 11 13 15 5 9 13 10 12 3 1 4 6 5 3 1 2 2 5 5 3 1 2 6 2 3 5 4 3 7 9 14
20 21 21 19 18 20 21 18 19 17 18 12 10 8 8 11 6 12 18 15 16 11 4 5 5 7 2 3 2 4 3 6 3 4 3 2 4 4 5 4 4 6 7 15 14
20 22 20 20 18 19 20 19 19 19 18 17 10 8 5 7 6 10 2 13 11 9 4 3 5 5 6 3 5 5 6 1 5 2 5 3 2 1 5 2 4 12 14 14 8
22 22 23 20 20 19 19 21 18 19 20 18 13 7 1 3 8 2 6 11 10 6 4 3 5 4 6 7 6 6 10 10 6 3 3 2 2 2 4 6 5 8 15 13 11
22 21 22 22 22 20 20 20 19 18 21 21 21 9 3 4 12 12 9 4 5 7 7 6 4 4 7 6 5 6 9 9 5 7 5 2 3 3 4 7 2 8 12 13 13
22 22 21 22 21 21 19 20 19 17 18 21 22 11 5 12 7 14 19 7 9 6 7 8 7 8 5 9 5 5 11 12 4 7 7 5 5 3 6 8 9 10 12 12 13
23 22 21 21 21 22 20 19 20 19 19 20 23 10 11 16 6 4 10 3 6 8 8 11 11 3 3 3 7 7 4 4 3 5 6 5 6 9 10 9 10 10 10 10 14
22 22 21 20 21 21 19 19 19 21 22 21 22 14 12 8 19 22 21 10 8 8 15 9 9 6 5 3 5 1 3 1 6 5 4 11 10 8 12 9 15 12 9 9 13
22 22 21 21 22 21 20 19 21 24 23 21 13 9 9 7 20 17 17 14 10 6 5 12 5 8 3 4 2 2 3 7 6 9 5 6 6 10 5 8 8 8 9 9 10
20 21 21 22 21 22 21 21 26 23 12 11 12 7 7 11 8 21 15 13 10 6 3 4 4 5 3 4 8 8 7 6 7 5 8 7 9 8 7 6 10 10 10 10 10
24 21 21 23 21 21 14 7 7 1 6 9 4 11 6 18 5 9 15 10 14 5 8 7 5 14 16 13 6 5 5 9 7 9 7 10 7 11 11 6 10 11 10 11 11
19 22 21 22 23 22 7 2 2 3 11 17 20 18 26 4 4 9 13 14 14 17 9 4 20 12 10 13 13 11 12 9 7 5 7 7 12 11 10 9 12 13 11 11 8
20 20 21 21 25 10 3 6 3 12 8 10 10 16 14 9 11 8 19 15 12 14 21 20 13 15 16 18 19 18 15 7 9 3 1 2 6 8 11 8 13 17 12 9 12
18 19 18 20 10 6 7 1 5 6 7 6 9 11 16 10 14 13 11 18 7 22 21 16 15 24 19 21 17 17 6 11 7 3 5 4 6 7 10 15 11 10 10 13 11
17 16 17 15 7 3 6 1 3 1 6 9 10 8 15 16 12 12 19 16 19 9 10 15 19 18 21 21 12 13 8 6 2 0 1 2 3 7 13 14 19 10 11 10 10
18 18 17 8 4 7 8 7 2 4 9 6 8 13 17 23 17 2 17 12 23 12 20 15 10 20 15 17 18 6 5 3 4 4 6 7 6 6 10 18 9 6 7 7 6
20 20 16 6 10 5 8 5 4 8 8 6 7 12 24 23 25 19 17 21 18 19 16 23 21 9 14 9 8 11 7 1 2 2 8 10 10 10 8 7 8 8 8 7 8
18 20 10 10 11 7 5 4 10 8 17 17 14 13 22 19 23 28 23 22 21 22 12 14 16 24 6 10 9 15 12 7 8 6 5 8 9 8 18 11 8 8 9 8 7
20 6 7 10 11 6 6 12 6 7 7 12 17 7 14 21 11 21 27 25 28 24 16 16 15 9 8 6 20 7 10 12 1 1 3 5 6 8 2 7 6 8 6 6 7
2 5 11 11 8 6 9 17 5 11 18 10 6 8 6 9 18 26 27 24 28 29 22 8 10 15 6 9 5 15 9 7 3 4 5 5 6 8 6 9 7 8 8 7 6
2 5 9 6 6 3 7 7 12 17 15 3 6 7 7 7 15 15 19 16 34 33 32 17 10 12 9 13 19 4 10 4 5 7 6 2 7 10 16 12 12 10 9 9 8
2 5 6 3 3 3 8 3 7 14 10 13 12 16 18 11 10 9 21 24 36 31 37 31 4 11 26 4 15 23 15 19 9 7 8 5 8 4 5 10 10 9 8 7 8
3 7 7 5 4 1 2 7 9 16 13 6 11 6 9 9 8 5 9 15 18 25 30 25 10 8 6 3 3 16 19 11 4 3 8 11 7 5 8 7 8 10 8 8 8
2 4 5 1 3 4 2 3 4 5 8 12 21 16 8 10 9 12 8 10 18 15 23 32 10 11 14 29 14 11 20 20 15 10 10 17 6 4 3 10 9 9 10 10 11
3 4 4 4 4 3 2 4 7 7 4 6 10 21 19 10 13 14 10 10 15 16 20 19 19 21 15 4 18 17 19 22 25 27 18 20 21 15 8 9 10 10 9 8 9
2 3 3 4 8 8 7 3 7 14 3 7 11 17 15 17 17 23 16 11 10 5 18 12 13 19 21 11 20 18 20 25 27 26 24 11 8 9 13 7 5 9 9 10 9
3 4 4 5 3 0 5 7 7 10 7 9 10 15 16 17 14 14 7 10 12 9 13 10 11 21 17 8 13 11 28 20 19 22 21 21 22 9 9 10 10 10 9 10 12
Wind_Direction
337 330 321 322 324 326 326 330 326 326 262 260 264 283 300 309 314 285 249 220 193 225 199 233 258 256 284 283 273 28 52 267 254 220 133 166 115 81 151 119 57 32 153 168 154
337 332 325 321 310 317 318 326 324 322 317 254 256 267 298 320 297 265 243 228 233 171 173 210 226 225 238 243 282 123 174 233 283 351 128 80 86 157 116 137 92 73 56 124 150
335 329 324 321 319 304 314 321 320 321 314 300 246 249 290 340 302 245 228 220 215 170 181 212 278 190 201 231 236 199 224 214 315 33 34 110 67 56 124 240 194 172 158 155 160
334 329 330 320 316 312 306 313 318 317 326 316 254 231 248 107 263 223 177 138 161 174 141 220 256 207 198 219 232 235 254 250 262 286 58 35 353 140 164 218 141 167 168 159 169
332 333 331 325 317 313 306 305 308 313 311 316 312 193 200 191 237 288 252 180 163 158 184 204 239 202 200 195 241 209 242 259 244 193 160 38 301 221 256 261 271 145 159 177 182
333 332 333 329 323 319 304 299 304 306 309 307 301 175 205 235 259 253 261 232 198 163 200 200 218 211 238 231 190 245 226 241 232 228 182 174 242 126 260 264 266 160 186 187 187
334 334 334 330 321 317 304 300 299 303 298 296 289 216 225 225 239 311 328 260 218 188 204 214 230 169 206 240 226 216 214 310 273 221 220 155 280 234 238 252 246 236 202 208 203
334 334 335 335 328 321 304 302 298 295 292 290 277 242 244 228 243 263 272 290 270 233 204 227 224 216 184 281 331 218 78 206 272 217 231 142 251 251 250 247 234 234 244 220 214
334 336 331 334 333 328 316 308 293 279 276 277 279 214 242 218 229 228 235 236 265 241 211 230 233 206 251 157 305 315 209 231 287 233 164 169 242 228 236 203 211 219 235 228 225
329 337 335 332 335 332 325 308 278 277 266 248 249 188 250 233 209 214 214 215 219 208 246 213 194 187 190 133 196 207 213 237 213 224 171 192 237 260 256 226 225 224 232 233 230
333 335 335 329 331 326 334 329 1 56 242 234 299 216 294 231 287 196 195 192 210 203 182 186 177 210 204 217 209 211 219 227 264 226 142 202 217 241 254 239 243 243 240 242 236
330 326 332 328 324 319 307 263 286 15 297 292 277 264 247 348 300 213 156 185 193 212 167 168 219 206 203 214 226 221 233 254 270 218 145 218 233 232 229 241 236 240 232 234 238
325 325 331 330 319 319 269 241 47 14 250 274 232 241 246 247 238 237 175 182 194 200 194 199 207 190 203 210 217 227 226 228 216 181 244 218 272 249 254 250 259 253 228 225 223
325 322 329 334 325 335 306 97 38 19 263 248 206 240 206 229 231 209 206 180 212 204 197 215 216 187 204 219 210 228 193 229 216 117 235 124 275 288 292 279 261 247 231 234 234
312 317 327 329 291 260 283 249 155 65 260 211 199 205 176 201 135 224 216 190 213 188 169 209 186 209 210 211 201 225 196 206 140 164 189 276 297 260 237 264 263 247 237 223 232
313 312 315 321 281 261 299 321 212 248 247 250 169 183 164 196 209 225 193 219 202 211 209 210 187 196 202 209 211 154 122 73 61 102 253 187 197 239 231 236 246 234 194 203 206
310 307 301 279 263 317 326 324 232 218 311 241 197 193 189 192 206 201 184 202 197 209 223 211 223 216 179 185 171 173 122 97 297 249 237 190 230 238 245 232 186 186 184 206 197
307 306 282 255 254 252 275 205 240 218 236 292 313 275 201 191 205 205 212 193 228 191 199 202 208 214 188 183 160 177 168 168 198 202 225 205 236 242 219 222 170 175 166 169 183
319 289 264 247 233 195 216 229 210 242 283 356 321 263 241 206 180 193 207 194 203 209 189 203 221 151 186 147 164 179 189 163 65 195 139 227 279 318 208 213 139 159 145 180 197
307 292 266 255 206 204 234 229 234 242 279 356 294 286 242 226 201 189 194 190 201 207 207 195 198 198 171 115 211 175 143 159 166 229 245 260 235 227 231 223 181 157 162 174 162
272 287 274 265 116 171 250 212 249 247 265 215 272 301 316 323 263 202 193 188 200 197 204 230 181 209 139 194 185 130 182 158 156 172 190 216 255 213 217 202 178 182 174 175 181
275 270 267 54 262 193 229 260 194 259 248 240 244 256 267 293 302 271 205 214 194 195 196 207 302 182 196 173 185 196 186 186 189 209 210 164 259 201 192 153 147 171 174 173 172
253 276 274 119 253 254 314 273 281 257 268 262 252 252 253 281 277 284 260 219 223 204 197 193 184 201 120 11 182 201 206 193 203 101 200 202 247 273 163 165 173 160 181 172 167
255 286 300 103 216 265 277 264 289 279 290 265 261 262 233 272 275 273 299 284 251 225 222 203 179 204 194 198 175 183 189 199 201 223 199 230 212 280 189 178 195 191 180 177 179
197 242 227 291 314 274 237 205 291 289 216 313 267 251 258 264 265 287 271 327 263 220 210 203 201 211 224 181 183 202 195 198 206 220 202 234 231 224 225 212 208 201 188 173 181
236 247 307 288 287 280 286 253 276 287 254 308 301 292 275 250 249 282 301 334 294 345 208 209 211 209 222 198 189 198 203 206 213 216 231 238 244 200 216 213 195 213 188 197 194
208 230 240 252 256 234 233 255 270 322 281 245 312 314 306 280 308 297 327 290 274 319 298 221 187 200 216 187 209 235 215 213 219 222 220 228 234 199 239 215 198 201 196 184 192